Location: Unspecified
(51.5147°N, 7.4673°E)
Time: 04:23:31
(UTC+01:00)

A-11 Canister half - Pass Details

Date: 22 February 2026
Orbit: 1512 x 1687 km, 47.2° (Epoch: 7 March)

Event Time Altitude Azimuth Distance (km) Brightness Sun altitude
Rises 00:25:50 0° 274° (W) 4,929 11.8 -48.6°
Enters shadow 00:28:44 - 272° (W) 4,021 11.2 -48.6°
Reaches altitude 10° 00:29:03 10° 272° (W) 3,928 - -48.7°
Maximum altitude 00:38:56 64° 194° (SSW) 1,776 - -48.7°
Drops below altitude 10° 00:48:28 10° 116° (ESE) 3,796 - -48.7°
Sets 00:51:31 0° 114° (ESE) 4,757 - -48.7°
